RH
7 21 31 34 26 28 22 18 19 25 31 36 32 34 67 70 66 73 55 62 63 70 90 100 99 99 86 88 89 96 88 90 95 94 88 74 64 63 66 81 88 54 76 86 87 66 65 56 50
10 33 34 33 24 24 18 18 24 25 38 40 38 44 46 62 53 48 51 51 50 67 96 99 99 100 99 87 86 92 99 86 88 84 93 88 82 73 71 74 78 68 59 87 84 73 71 59 61
21 40 34 40 38 23 16 16 22 42 38 38 44 45 48 57 50 51 48 44 43 60 95 100 97 99 100 98 87 92 98 94 85 82 77 82 82 78 72 75 75 75 53 85 86 80 80 67 74
35 39 32 42 34 26 18 20 42 45 42 38 40 47 46 54 52 55 48 44 37 46 73 96 98 92 97 97 91 98 100 96 91 84 79 80 84 69 67 75 78 63 62 73 91 84 77 70 70
40 37 38 48 39 26 21 23 41 43 41 42 37 49 46 47 51 50 46 44 38 39 58 83 99 99 99 97 98 99 97 95 94 89 84 86 85 81 70 73 70 76 60 81 68 88 76 70 68
45 35 36 36 32 20 24 29 37 36 40 44 40 45 44 48 50 51 47 45 36 34 37 41 85 98 98 93 93 92 94 96 95 89 85 85 83 84 82 76 66 71 72 80 86 76 77 74 66
50 51 44 24 21 19 24 29 33 34 39 38 40 49 45 45 46 54 49 39 33 30 30 22 27 36 78 91 90 90 89 88 88 85 83 85 82 82 82 80 74 66 72 72 90 91 83 84 72
39 42 36 34 25 18 21 22 23 26 28 42 38 48 47 42 43 47 46 36 28 24 24 21 18 24 29 42 69 87 91 91 93 92 91 87 85 87 86 84 80 72 67 63 84 97 92 82 82
35 46 56 26 25 20 21 20 21 24 30 33 37 37 34 42 42 42 41 33 25 19 16 16 17 18 23 26 35 47 62 71 86 90 93 95 93 89 85 84 84 80 70 67 71 87 92 88 88
42 58 46 26 21 20 22 19 21 22 31 35 38 38 38 42 42 41 39 32 23 17 12 10 9 11 12 13 14 19 27 43 54 71 85 93 93 92 92 88 86 88 83 73 70 75 80 79 82
37 43 29 22 32 22 21 20 20 28 30 29 35 42 41 43 42 40 39 32 22 15 10 7 6 5 4 4 4 4 7 11 21 34 53 73 83 89 90 92 94 92 89 83 75 74 80 78 72
21 22 23 23 20 22 23 18 20 23 23 21 23 30 36 44 43 41 40 32 22 15 10 6 4 3 2 2 2 2 2 2 3 6 15 28 51 67 78 87 92 96 92 91 86 69 78 79 75
18 20 22 20 18 19 19 20 19 23 21 20 26 36 38 42 42 38 37 33 23 14 9 6 4 3 2 2 1 1 1 1 1 1 2 4 10 24 47 69 86 96 100 99 97 85 71 77 78
19 20 20 19 18 17 19 19 17 22 22 22 29 37 40 41 42 39 37 32 23 15 10 7 5 4 3 2 1 1 1 1 1 1 1 1 1 2 6 20 53 77 96 100 100 99 84 76 79
18 17 18 19 18 19 17 20 23 21 30 31 36 38 40 38 37 35 32 28 19 14 10 8 6 5 3 2 2 1 1 1 1 1 2 2 1 1 1 2 6 28 62 82 99 99 100 95 93
17 19 20 19 20 19 15 19 24 25 30 37 38 40 39 39 37 36 31 26 19 13 10 9 8 6 4 3 2 2 1 2 2 2 2 2 3 2 2 2 2 2 8 36 63 88 98 99 100
25 21 21 18 20 19 15 17 24 32 38 40 39 40 40 41 40 36 31 26 19 15 11 11 10 8 6 4 2 2 1 1 2 2 3 3 4 4 5 4 4 3 2 2 11 41 70 95 98
31 22 23 22 21 20 21 32 24 26 39 40 39 39 39 38 37 36 33 27 24 16 14 14 13 10 8 5 3 2 2 1 1 1 2 3 5 7 8 8 7 6 4 3 2 3 16 46 80
67 71 55 35 21 21 25 28 26 22 37 40 39 39 38 37 35 36 35 31 28 19 17 17 16 14 11 8 5 3 2 2 2 2 2 4 6 8 9 10 10 9 9 7 5 3 2 4 20
37 43 41 33 22 29 49 54 50 31 39 36 35 36 38 38 38 39 38 34 30 20 19 20 19 17 14 11 7 4 2 2 2 2 2 3 4 6 8 10 11 12 12 11 10 8 6 4 4
53 74 53 52 43 43 55 66 52 45 37 35 31 27 30 34 38 39 40 36 35 24 21 23 22 20 18 16 11 6 3 2 2 2 2 3 3 5 6 9 12 14 14 14 13 12 11 9 8
50 34 45 52 70 88 75 91 62 71 73 76 44 39 33 32 36 36 40 40 37 30 24 26 24 22 21 20 16 10 5 3 2 2 2 3 3 5 6 9 12 15 17 18 18 18 17 15 12
44 32 43 72 92 90 83 81 71 57 66 70 78 50 36 32 33 35 37 37 38 35 26 27 23 22 23 23 21 15 8 4 3 2 3 3 4 5 7 10 14 18 21 22 24 23 23 22 19
35 39 67 83 93 99 77 85 82 70 74 81 80 70 52 38 32 31 33 37 40 34 33 27 22 23 24 25 25 19 10 5 3 2 2 3 4 5 7 9 13 18 24 26 28 29 28 27 25
67 78 94 97 98 94 83 87 81 74 81 86 93 85 60 41 33 31 33 40 41 35 33 28 22 23 24 25 26 22 13 6 4 3 3 3 4 5 7 10 14 19 25 29 32 33 33 32 31
94 81 93 100 100 93 75 88 66 78 77 88 92 79 56 47 35 30 33 37 36 36 34 27 24 24 24 24 26 23 15 8 4 4 4 5 5 5 7 12 18 26 31 34 37 36 35 35 35
75 97 86 95 97 97 100 74 75 78 79 87 83 67 64 46 39 37 39 37 36 34 26 25 26 25 24 23 26 24 16 9 5 5 5 6 6 7 9 16 25 36 40 42 42 41 38 41 40
70 77 90 95 100 100 91 98 92 83 87 85 86 78 58 48 40 35 37 27 24 23 23 24 24 24 25 24 26 24 17 10 6 5 6 7 8 10 11 22 41 48 49 49 50 48 46 45 43
90 95 92 91 96 97 100 95 85 87 90 88 79 68 49 44 35 25 20 20 20 20 21 22 22 23 24 23 24 24 19 12 8 6 6 7 9 12 13 23 45 54 55 55 57 54 51 49 46
93 94 90 95 93 97 94 85 85 87 91 76 52 32 25 26 29 26 25 28 35 37 35 29 23 23 24 22 24 25 21 15 10 7 7 8 10 13 15 24 48 60 60 61 61 59 59 58 57
Wind_Speed
8 14 14 12 3 3 4 7 0 2 3 3 7 4 5 6 3 4 16 20 23 20 21 20 20 21 22 18 15 12 14 17 17 15 11 10 9 11 12 12 11 10 11 11 11 10 12 13 12
12 14 13 4 4 4 5 4 6 4 6 16 11 8 4 3 5 12 17 21 20 18 20 20 22 19 21 20 18 15 13 15 15 14 13 10 11 11 9 9 9 8 10 12 10 10 11 12 12
16 17 7 4 4 8 5 5 6 4 18 4 6 5 5 7 11 22 18 22 21 18 18 21 23 21 18 19 18 17 16 15 13 12 13 12 11 10 12 8 8 8 8 12 11 10 9 9 11
14 9 1 3 7 5 4 3 4 10 4 5 10 7 6 7 19 17 25 22 19 19 19 19 25 22 20 19 19 18 18 18 15 13 12 12 11 13 12 13 8 7 7 10 11 11 9 8 10
15 5 1 3 5 4 3 1 15 7 7 6 9 6 6 16 11 19 23 20 19 18 17 18 24 25 24 22 21 23 19 19 18 16 14 12 11 11 12 12 11 10 11 8 11 11 9 8 10
4 2 2 6 5 4 3 6 10 3 4 10 7 10 6 13 14 21 20 18 17 16 14 12 19 25 26 24 22 20 19 19 19 18 16 15 13 11 10 9 10 10 11 13 9 10 10 9 10
4 4 5 4 5 3 6 14 8 7 6 3 14 6 8 19 18 20 19 18 16 16 14 11 13 12 13 17 21 19 18 17 18 18 16 16 15 14 12 11 10 9 11 13 12 10 10 9 9
5 3 3 5 5 5 6 9 6 7 4 13 9 6 6 26 23 22 20 19 18 16 15 13 12 11 11 12 14 15 15 16 16 16 17 18 16 15 14 13 12 11 11 12 12 13 10 8 9
5 1 4 4 7 3 8 4 7 6 12 8 9 5 4 31 27 24 23 21 18 16 14 14 12 11 11 11 11 13 14 15 15 15 17 16 18 18 17 16 13 13 12 12 12 13 14 12 10
4 4 9 2 1 1 4 2 13 6 5 2 7 8 12 32 30 27 25 22 19 17 15 13 12 12 12 11 11 13 15 16 16 16 17 18 17 18 19 18 17 16 15 15 15 15 15 15 14
5 4 3 3 1 2 5 3 7 11 3 11 16 21 26 32 30 26 23 18 17 15 13 12 11 11 12 12 12 12 14 15 17 18 18 19 18 17 18 18 20 20 19 18 17 18 18 18 17
3 1 1 1 3 2 5 6 5 11 4 7 13 21 29 32 31 28 24 21 17 15 13 11 11 10 10 11 12 12 12 13 16 17 18 18 19 19 18 18 19 22 22 21 20 19 20 20 18
1 2 2 2 3 3 2 2 1 6 6 5 16 25 31 31 29 26 22 20 16 14 12 11 9 9 9 10 11 12 12 13 14 15 17 18 19 20 19 19 19 20 24 24 24 22 22 22 22
2 3 2 2 2 4 1 1 2 4 9 13 20 28 31 31 30 27 23 20 17 15 12 9 7 6 7 8 9 10 11 12 13 13 15 16 17 18 19 19 20 20 21 22 24 24 24 24 25
6 3 5 2 2 3 2 6 6 5 13 20 26 28 29 29 28 27 23 19 16 15 13 10 7 6 5 5 5 6 8 9 11 12 12 13 14 16 16 17 19 22 22 21 22 23 25 26 26
3 4 1 3 2 3 2 7 3 10 19 21 25 28 29 29 27 24 20 18 17 14 12 10 8 6 5 5 5 6 6 7 8 10 11 12 13 13 14 16 17 18 20 22 23 22 24 25 28
4 3 4 3 1 1 2 5 4 7 17 19 24 26 28 28 26 23 20 18 16 15 12 10 7 5 4 4 4 5 7 8 9 10 11 11 10 11 12 13 15 16 17 19 21 23 25 26 27
6 4 4 4 2 1 3 10 9 4 16 18 22 25 27 29 28 24 22 19 17 15 12 10 7 5 3 3 3 4 5 6 7 9 11 11 11 11 11 11 12 13 15 17 19 21 23 24 28
5 4 2 2 2 3 6 8 11 8 15 15 21 26 30 31 28 26 23 21 19 16 13 10 7 5 3 3 4 4 5 6 7 8 9 10 10 10 11 11 11 12 12 14 16 18 20 21 26
2 2 4 1 0 1 4 11 11 9 11 27 31 31 32 30 31 30 27 24 20 16 14 11 7 5 4 4 4 5 5 6 7 8 9 10 10 10 11 11 11 11 11 12 13 14 16 18 19
2 3 1 1 4 1 6 8 6 3 11 19 33 37 37 38 36 34 32 27 23 19 14 10 7 5 4 5 6 6 6 7 7 8 9 10 11 11 11 12 12 11 10 11 11 13 14 15 15
2 1 2 2 3 3 2 5 6 2 5 3 13 28 35 38 38 35 33 29 24 19 15 11 8 5 5 5 6 7 7 7 7 8 8 9 10 11 12 12 12 12 11 11 12 13 14 15 15
1 3 3 3 4 3 3 1 7 3 4 4 5 21 33 35 37 38 34 29 24 19 14 11 8 7 6 6 8 8 9 9 9 9 9 9 10 11 12 12 12 12 12 12 13 14 14 16 15
2 4 6 4 3 2 3 4 5 1 2 6 4 13 22 31 35 34 31 29 24 20 17 12 9 8 7 8 9 10 11 11 11 11 11 10 10 11 12 13 13 14 13 13 14 16 17 18 18
5 4 3 4 3 4 3 2 8 6 5 5 11 16 13 26 32 35 33 30 25 21 16 13 10 9 9 9 10 11 12 12 13 12 13 12 11 12 13 13 14 15 15 15 16 18 19 20 22
1 5 4 5 2 3 4 5 4 6 10 9 6 3 12 24 29 30 28 28 23 19 16 14 12 11 10 10 11 12 12 13 14 14 14 13 13 13 14 14 14 16 16 16 18 20 20 23 25
2 1 3 5 2 2 2 7 6 5 6 10 10 12 15 19 23 24 22 20 19 17 16 14 13 13 12 12 11 12 13 14 14 14 15 15 15 15 16 16 17 17 18 18 20 22 22 25 26
1 2 3 2 2 3 5 4 3 7 9 7 7 9 13 17 20 16 13 16 16 15 14 16 15 14 14 13 12 12 14 14 15 15 16 16 16 17 18 18 19 19 19 20 22 23 24 27 28
2 1 3 1 2 4 1 2 3 6 4 4 5 4 4 7 12 15 15 12 11 12 14 16 17 16 14 14 13 13 14 15 15 16 16 17 17 18 19 20 21 21 21 21 24 25 26 28 30
1 2 3 2 3 1 2 3 1 5 5 3 8 6 3 2 7 11 11 8 8 12 17 19 20 19 16 16 14 13 14 14 15 16 17 18 18 19 20 21 22 22 23 23 25 27 27 30 32
Wind_Direction
220 180 168 160 123 76 237 240 319 125 168 203 139 159 152 74 139 183 148 160 164 172 176 177 173 174 177 181 179 181 171 154 147 143 144 145 144 143 143 135 123 121 118 117 123 95 96 96 86
185 173 164 153 125 180 234 222 213 167 132 119 109 96 59 99 114 143 148 155 162 168 171 175 179 175 179 184 190 189 192 180 164 158 151 152 152 153 152 151 142 133 127 131 127 110 105 100 93
175 171 167 157 184 213 213 198 178 113 145 131 113 79 113 139 145 149 157 157 160 165 171 173 182 183 182 183 193 194 198 186 184 178 170 172 160 156 159 160 153 142 136 140 140 130 117 106 99
165 179 96 130 235 256 206 189 125 129 193 180 138 83 110 152 150 163 156 158 164 164 171 176 184 187 186 191 195 201 203 191 185 186 185 187 181 179 168 162 162 148 145 150 150 143 130 121 118
167 154 164 225 239 262 238 221 163 159 151 153 151 157 125 152 163 162 160 164 171 171 172 174 180 191 200 200 206 212 204 197 191 192 193 199 201 193 187 181 175 162 153 165 163 162 156 141 137
161 141 126 218 231 213 263 178 153 134 137 141 120 126 140 175 173 167 168 169 173 179 176 174 185 189 194 198 204 202 195 200 199 196 197 202 203 205 208 204 194 185 170 164 178 178 177 162 154
145 114 215 187 224 249 199 160 163 146 132 156 149 115 159 174 176 175 176 175 178 179 182 178 173 178 188 195 197 192 196 194 204 203 201 205 207 207 209 209 207 208 199 175 174 190 189 174 167
199 115 196 231 186 250 177 154 170 154 147 149 171 180 182 179 179 179 179 178 180 181 181 181 183 179 183 187 194 192 197 197 201 199 204 206 210 211 210 211 211 208 213 197 185 183 193 194 182
162 117 222 230 160 232 161 140 154 154 140 166 181 183 200 179 178 181 181 179 182 180 180 182 181 187 195 198 201 203 205 203 199 200 201 203 209 215 218 219 215 213 214 216 197 199 192 195 208
150 172 207 220 129 207 192 187 157 147 128 166 174 183 174 177 180 181 182 181 180 181 181 183 185 189 197 204 210 209 211 208 209 206 205 208 210 212 219 219 216 219 218 217 212 205 209 204 211
172 216 208 147 23 246 168 136 173 132 217 202 195 167 170 177 180 184 182 184 186 184 185 186 190 193 198 207 209 211 213 211 211 215 214 213 216 217 219 220 218 218 223 223 219 216 213 209 206
182 144 326 29 350 163 166 163 181 194 163 209 211 191 177 181 183 185 185 187 190 190 190 191 193 197 204 209 215 217 216 218 219 219 219 220 222 223 220 221 218 220 224 227 225 222 220 217 216
244 150 86 70 44 63 166 154 246 219 200 180 178 180 182 183 186 188 192 192 194 197 198 202 200 201 208 211 214 218 220 222 228 225 224 224 225 227 225 224 222 222 226 227 227 224 223 222 221
70 45 35 4 21 29 7 189 209 212 195 179 181 182 186 189 190 188 193 196 195 196 198 202 208 212 216 217 219 219 221 222 225 227 226 226 228 229 230 230 229 228 226 226 228 228 226 226 224
113 0 341 336 357 31 349 270 228 212 177 176 184 188 189 191 194 200 197 199 200 197 198 200 204 216 226 239 245 236 228 227 229 230 229 228 227 229 234 236 235 233 232 233 232 231 233 231 229
94 53 136 354 21 4 123 252 47 208 184 185 187 190 192 193 198 200 202 202 202 204 202 202 206 217 228 235 241 250 251 252 247 240 231 230 230 232 234 237 239 239 239 238 238 236 236 237 236
13 197 194 304 147 27 161 277 27 198 196 192 194 194 194 192 197 199 203 207 204 201 203 204 208 221 241 254 256 248 245 242 245 252 256 251 243 233 233 236 239 242 244 247 244 243 243 239 240
190 197 217 223 212 182 261 264 272 255 209 211 201 198 198 198 200 199 203 203 202 202 203 203 209 217 244 274 282 274 265 258 249 246 246 249 248 248 247 243 240 241 244 248 252 251 251 252 248
114 103 173 261 161 203 235 258 268 244 219 221 213 205 203 203 202 201 201 202 201 203 205 205 211 223 246 277 290 288 282 275 265 258 253 249 246 246 247 252 254 251 252 252 253 255 257 259 260
140 128 238 303 200 157 332 277 254 213 211 213 214 212 207 203 201 199 199 202 206 210 207 209 218 238 269 290 298 294 287 274 268 262 259 255 254 254 256 257 257 257 260 262 265 266 263 263 269
134 156 338 250 325 331 329 282 255 259 224 217 221 221 215 208 201 198 198 200 202 205 208 210 222 244 272 295 303 304 297 284 274 265 264 261 257 253 252 257 263 267 269 271 274 274 272 268 263
251 52 88 47 59 241 57 283 305 332 320 277 234 222 217 210 208 203 199 199 201 204 204 210 221 243 268 294 309 313 307 294 280 270 262 260 259 259 256 255 259 262 267 270 271 274 275 274 271
159 52 63 85 89 50 305 77 273 11 352 321 299 235 224 217 207 201 202 202 202 203 207 213 225 247 270 294 307 313 313 307 298 287 278 269 263 262 262 260 262 266 267 267 270 271 272 274 273
132 83 40 48 77 3 248 142 284 327 289 299 296 323 229 212 207 202 201 199 200 203 208 218 231 250 272 292 306 313 315 309 303 296 287 277 268 263 265 264 262 263 265 266 269 272 273 272 268
62 60 342 349 17 222 334 60 251 288 262 265 297 308 219 201 197 194 195 194 199 208 215 222 235 252 268 283 299 311 314 311 306 301 294 288 279 270 268 265 261 260 263 267 270 270 271 272 273
117 152 164 222 209 278 61 233 269 242 308 341 6 119 173 184 188 190 192 194 201 210 221 228 235 250 262 275 293 305 311 310 306 301 298 295 289 281 276 274 271 269 269 270 271 271 272 272 272
207 153 199 106 46 46 270 294 321 325 14 24 61 110 144 164 175 182 183 194 206 216 224 233 240 249 260 271 286 299 307 308 304 302 300 296 293 290 287 284 281 281 281 279 277 277 275 272 272
121 162 73 10 173 267 297 279 260 350 354 16 33 75 119 141 155 169 191 208 212 220 227 234 241 248 254 264 278 295 304 306 304 304 301 299 295 292 289 288 288 287 286 284 284 283 280 277 274
129 297 29 118 158 171 256 305 231 289 311 316 38 88 135 169 181 188 201 206 216 232 244 251 252 254 256 263 276 289 299 305 306 305 302 298 295 292 291 292 292 292 289 288 288 289 286 284 282
88 236 211 191 224 124 146 284 321 299 300 115 61 35 356 270 219 205 200 206 243 260 262 264 258 252 250 258 269 281 293 302 306 304 302 299 296 294 294 295 295 295 295 293 293 293 293 292 290